Regional Weather Roundup
Issued by NWS

Home | Current Version | Previous Version | Text Only | Print | Product List | Glossary Off
Versions: 1 2 3 4 5 6 7 8 9 10 11 12 13 14 15 16 17 18 19 20 21 22 23 24 25 26 27 28 29 30 31 32 33 34 35 36 37 38 39 40 41 42 43 44 45 46 47 48 49 50

000
ASUS45 KABQ 192301
RWRNM
NEW MEXICO REGIONAL WEATHER ROUNDUP
NATIONAL WEATHER SERVICE ALBUQUERQUE NM
400 PM MST SUN NOV 19 2017

NOTE: "FAIR" MEANS FEW OR NO CLOUDS BELOW 12,000 FEET AGL WITH NO
       SIGNIFICANT WEATHER OR OBSTRUCTIONS TO VISION.

      THIS PRODUCT IS RELEASED AS TWO VERSIONS.  ONE VERSION NEAR
      THE TOP OF THE HOUR CONTAINING PRELIMINARY DATA FROM ALBUQUERQUE
      AND OTHER STATIONS.  A FINAL VERSION WITH ADDITIONAL DATA IS
      ISSUED ABOUT 10 MINUTES AFTER THE HOUR.

NMZ501-503-504-510>518-200000-
NORTHWEST PLATEAU/NORTHCENTRAL MOUNTAINS

CITY           SKY/WX    TMP DP  RH WIND       PRES   REMARKS
FARMINGTON     FAIR      48  11  22 W6        30.17F
LOS ALAMOS     FAIR      47   8  19 S9        30.19S
SANTA FE       FAIR      49   9  19 W12       30.16F
TAOS           FAIR      52   4  14 SW8       30.19F
ANGEL FIRE     FAIR      44   3  18 W13       30.19S

$$
NMZ402-403-502-505>509-200000-
WESTCENTRAL MOUNTAINS/SOUTHWEST MOUNTAINS

CITY           SKY/WX    TMP DP  RH WIND       PRES   REMARKS
GALLUP         FAIR      56   3  11 N8        30.17F
GRANTS         FAIR      53  -3  10 W5        30.18S
SILVER CITY    FAIR      57  13  17 SE6       30.15S

$$
NMZ407-409-411-412-200000-
SOUTHERN DESERTS

CITY           SKY/WX    TMP DP  RH WIND       PRES   REMARKS
DEMING         FAIR      60  15  17 E7        30.12F
LAS CRUCES     FAIR      59  11  15 E3        30.13F
HOLLOMAN AFB   FAIR      56  16  20 NW6       30.16F
ALAMOGORDO     FAIR      57  16  19 N3        30.15F
T OR C         FAIR      58  10  15 VRB3      30.14F

$$
NMZ519>523-200000-
CENTRAL VALLEYS/CENTRAL HIGHLANDS

CITY           SKY/WX    TMP DP  RH WIND       PRES   REMARKS
ALBUQUERQUE    MOCLDY    52   1  12 CALM      30.17F
DOUBLE EAGLE   PTCLDY    52   3  14 S7        30.18F
MORIARTY ARPT  FAIR      57   1  10 NW9       30.16F
CLINES CORNERS FAIR      51   2  13 W15G25    30.17S
BELEN          FAIR      52   6  15 CALM      30.17F
SOCORRO        FAIR      55   4  12 CALM      30.15F

$$
NMZ524>526-539-540-200000-
SOUTHCENTRAL MOUNTAINS

CITY           SKY/WX    TMP DP  RH WIND       PRES   REMARKS
RUIDOSO        FAIR      50  12  22 NW3       30.20S

$$
NMZ527>531-200000-
NORTHEAST HIGHLANDS/NORTHEAST PLAINS

CITY           SKY/WX    TMP DP  RH WIND       PRES   REMARKS
LAS VEGAS      FAIR      53   5  14 S15       30.10F
RATON          FAIR      54   6  14 SW10      30.07F
CLAYTON        FAIR      51  14  22 SW13      30.06F

$$
NMZ532>537-200000-
EASTCENTRAL PLAINS

CITY           SKY/WX    TMP DP  RH WIND       PRES   REMARKS
SANTA ROSA     FAIR      56  15  19 S16G23    30.08F
TUCUMCARI      FAIR      57  14  18 SW16      30.07F
CANNON AFB     FAIR      53  12  19 SW12      30.15S
CLOVIS AIRPORT FAIR      53  12  19 SW16      30.15S

$$
NMZ028-029-538-200000-
SOUTHEAST PLAINS

CITY           SKY/WX    TMP DP  RH WIND       PRES   REMARKS
ROSWELL        FAIR      56  13  18 S18       30.15F
ARTESIA        FAIR      55  16  21 SE16      30.16F
CARLSBAD       FAIR      55  18  23 SE10G22   30.15F
HOBBS          CLEAR     52  16  24 S10       30.18F


$$




USA.gov is the U.S. government's official web portal to all federal, state and local government web resources and services.